[[{"header":{"parameterUnit":"m.s-1","parameterCategory":1,"la1":30.2991,"la2":30.254,"lo1":-89.0895,"lo2":-89.0444,"dy":0.0017,"dx":0.0017,"nx":28,"ny":28,"refTime":"2024-11-28T03:00:00:Z","depth":0,"parameterNumber":2,"parameterNumberName":"U-component_of_WINDS"},"data":[0,0,0,0,0,0,0,0,0,0,0,0,0,0,0,0,0,0,0,0,0,0,0,0,0,0,0,0,0,0,0,0,0,0,0,0,0,0,0,0,0,0,0,0,0,0,0,0,0,0,0,0,0,0,0,0,0,0,-0.858,-0.858,0,-0.8623,-0.8623,-0.8624,-0.8605,-0.8604,-0.8603,-0.8602,-0.8648,-0.865,-0.8653,0,0,0,0,0,0,0,0,0,0,0,0,0,-0.8481,-0.8483,-0.858,-0.858,-0.8581,-0.8623,-0.8623,-0.8624,-0.8606,-0.8604,-0.8603,-0.8602,-0.8647,-0.865,-0.8653,0,0,0,0,0,0,0,0,0,0,0,0,0,-0.8524,-0.8483,-0.8579,-0.8576,-0.8577,-0.8623,-0.8623,-0.8624,-0.8606,-0.8604,-0.8603,-0.8601,-0.8647,-0.865,-0.8653,-0.8705,0,0,-0.8663,-0.8665,0,0,0,0,0,0,0,0,-0.8522,-0.8528,-0.8576,-0.8577,-0.8577,-0.8607,-0.8605,-0.8651,-0.8606,-0.8595,-0.8602,-0.86,-0.8636,-0.864,-0.8652,-0.8707,-0.8709,-0.8663,-0.8665,-0.8667,-0.8668,0,0,0,0,0,0,0,-0.8519,-0.8526,-0.8597,-0.8577,-0.8577,-0.8573,-0.8577,-0.8614,-0.8624,-0.8596,-0.8594,-0.86,-0.8636,-0.8649,-0.8653,-0.871,-0.8663,-0.8666,-0.8668,-0.867,-0.8809,-0.8811,0,0,0,0,0,0,-0.8516,-0.8523,-0.8595,-0.8598,-0.8545,-0.8576,-0.8581,-0.8599,-0.8623,-0.8625,-0.8601,-0.8599,-0.8644,-0.8649,-0.8654,-0.8716,-0.8667,-0.867,-0.8672,-0.8807,-0.881,-0.8811,0,0,0,0,0,0,-0.8514,-0.8522,-0.8594,-0.856,-0.8569,-0.8579,-0.86,-0.8601,-0.8613,-0.8627,-0.8629,-0.8612,-0.8643,-0.8649,-0.8692,-0.8718,-0.8671,-0.8674,-0.8805,-0.8808,-0.881,-0.8842,0,0,0,0,0,0,-0.8511,-0.8522,-0.8542,-0.8561,-0.8571,-0.8631,-0.8601,-0.8603,-0.8619,-0.8616,-0.8638,-0.864,-0.8642,-0.8687,-0.8696,-0.8721,-0.8677,-0.8803,-0.8807,-0.881,-0.8838,-0.8845,-0.885,0,0,0,0,0,-0.8507,-0.8549,-0.8543,-0.8552,-0.8596,-0.8633,-0.8638,-0.8639,-0.8621,-0.8641,-0.865,-0.864,-0.8713,-0.8692,-0.8701,-0.8728,-0.8802,-0.8806,-0.8809,-0.8836,-0.8844,-0.885,0,0,0,0,0,0,-0.8534,-0.8552,-0.8545,-0.8594,-0.8612,-0.8629,-0.8655,-0.8647,-0.8671,-0.8668,-0.8667,-0.8672,-0.8717,-0.8726,-0.8702,-0.8779,-0.8755,-0.8761,-0.8772,-0.8779,-0.8785,-0.8783,-0.868,0,0,0,0,0,-0.8545,-0.8573,-0.8587,-0.8629,-0.8638,-0.8645,-0.8661,-0.866,-0.8678,-0.8686,-0.8698,-0.8716,-0.8744,-0.8762,-0.8788,-0.8839,-0.8843,-0.8862,-0.8868,-0.8873,-0.8879,-0.8906,-0.8914,-0.8824,-0.8824,-0.8824,0,0,-0.8569,-0.8582,-0.86,-0.8635,-0.8648,-0.8677,-0.8652,-0.8684,-0.8705,-0.8691,-0.8732,-0.8741,-0.8762,-0.8809,-0.883,-0.8819,-0.8904,-0.8878,-0.8882,-0.8885,-0.8911,-0.8919,-0.8927,-0.8827,-0.8826,-0.8826,0,0,-0.8628,-0.8641,-0.8677,-0.8691,-0.8711,-0.8715,-0.8724,-0.8742,-0.8747,-0.8788,-0.8778,-0.8803,-0.885,-0.8865,-0.8879,-0.8941,-0.8933,-0.8949,-0.8982,-0.9008,-0.9016,-0.9022,-0.9044,-0.9052,-0.8955,-0.8955,-0.8955,0,-0.8656,-0.8699,-0.8697,-0.873,-0.8745,-0.8732,-0.8768,-0.8782,-0.881,-0.8821,-0.8807,-0.8864,-0.8878,-0.8928,-0.8943,-0.8954,-0.8964,-0.8948,-0.9015,-0.9021,-0.9027,-0.9048,-0.9057,-0.8957,-0.8956,-0.8956,-0.8956,0,-0.8732,-0.8762,-0.8789,-0.8816,-0.8834,-0.8868,-0.8871,-0.8889,-0.8886,-0.8891,-0.8932,-0.8947,-0.8975,-0.8986,-0.8984,-0.9036,-0.9028,-0.9014,-0.899,-0.9037,-0.9057,-0.9066,-0.8959,-0.8959,-0.8958,-0.8958,0,0,-0.8812,-0.8835,-0.8845,-0.8856,-0.8877,-0.89,-0.8933,-0.896,-0.8976,-0.8995,-0.9023,-0.9062,-0.9049,-0.9064,-0.9063,-0.9086,-0.9134,-0.9069,-0.9069,-0.9081,-0.9192,-0.9203,-0.9213,-0.9127,-0.9129,-0.913,-0.9191,0,-0.8873,-0.8931,-0.8929,-0.8984,-0.9011,-0.8997,-0.9026,-0.9042,-0.9047,-0.9071,-0.9076,-0.9104,-0.9085,-0.9094,-0.9116,-0.9123,-0.9157,-0.9119,-0.9154,-0.9155,-0.9151,-0.9224,-0.9236,-0.9292,-0.9199,-0.92,-0.9201,0,-0.8953,-0.8974,-0.9031,-0.9046,-0.9057,-0.9083,-0.9107,-0.913,-0.9147,-0.9149,-0.9165,-0.9159,-0.9192,-0.9165,-0.9211,-0.9186,-0.9199,-0.9205,-0.9207,-0.9212,-0.9182,-0.9231,-0.931,-0.9319,-0.9213,-0.9212,-0.9211,0,-0.9006,-0.9048,-0.9087,-0.9097,-0.9116,-0.9134,-0.9143,-0.9158,-0.9174,-0.9194,-0.9204,-0.9229,-0.9242,-0.9261,-0.9261,-0.9242,-0.9308,-0.9281,-0.9311,-0.9311,-0.9327,-0.9326,-0.9411,-0.9334,-0.9334,-0.9333,-0.9333,0,-0.9075,-0.9111,-0.9111,-0.9135,-0.9174,-0.9171,-0.921,-0.9216,-0.923,-0.9255,-0.9244,-0.9268,-0.9267,-0.9291,-0.9291,-0.9329,-0.9335,-0.9338,-0.9338,-0.9339,-0.9339,-0.935,-0.9346,-0.9336,-0.9335,-0.9335,-0.9334,0,-0.9142,-0.9144,-0.9185,-0.9199,-0.9203,-0.9231,-0.9242,-0.9265,-0.9268,-0.93,-0.9308,-0.9313,-0.934,-0.9342,-0.9374,-0.9374,-0.942,-0.9415,-0.9415,-0.9414,-0.9444,-0.9441,-0.9539,-0.9552,-0.9466,-0.9467,-0.9467,0,-0.9187,-0.9214,-0.9229,-0.9245,-0.9255,-0.928,-0.9296,-0.9293,-0.9309,-0.9329,-0.935,-0.9376,-0.9397,-0.9442,-0.9449,-0.9473,-0.9469,-0.9501,-0.9472,-0.9473,-0.947,-0.9469,-0.9471,-0.9507,-0.9508,-0.9509,-0.951,0,-0.9267,-0.9266,-0.9288,-0.9311,-0.9329,-0.9347,-0.9364,-0.9377,-0.9376,-0.9395,-0.9423,-0.9439,-0.947,-0.9497,-0.952,-0.9528,-0.9519,-0.9518,-0.9527,-0.9529,-0.9528,-0.953,-0.9431,-0.9517,-0.9516,-0.9515,-0.9515,-0.9515,-0.9325,-0.9348,-0.9362,-0.9387,-0.9398,-0.9414,-0.9436,-0.9441,-0.9463,-0.9489,-0.9485,-0.9516,-0.953,-0.956,-0.9571,-0.9594,-0.9583,-0.9595,-0.9598,-0.9602,-0.9605,-0.9523,-0.9598,-0.9598,-0.9598,-0.9598,-0.9598,0,-0.9405,-0.9412,-0.9435,-0.9458,-0.9478,-0.9465,-0.9482,-0.95,-0.9527,-0.9541,-0.9561,-0.9592,-0.9617,-0.9625,-0.9649,-0.9666,-0.9662,-0.9673,-0.9672,-0.9674,-0.9613,-0.9604,-0.9675,-0.9675,-0.9675,-0.9675,-0.9675,-0.9675,-0.9449,-0.9486,-0.9487,-0.953,-0.9537,-0.9567,-0.9577,-0.9591,-0.9602,-0.9637,-0.9657,-0.9662,-0.9673,-0.9697,-0.9719,-0.9721,-0.973,-0.9743,-0.9743,-0.9686,-0.9678,-0.9671,-0.9662,-0.9745,-0.9745,-0.9801,-0.9802,-0.9802]},{"header":{"parameterUnit":"m.s-1","parameterCategory":1,"la1":30.2991,"la2":30.254,"lo1":-89.0895,"lo2":-89.0444,"dy":0.0017,"dx":0.0017,"nx":28,"ny":28,"refTime":"2024-11-28T03:00:00:Z","depth":0,"parameterNumber":3,"parameterNumberName":"V-component_of_WINDS"},"data":[0,0,0,0,0,0,0,0,0,0,0,0,0,0,0,0,0,0,0,0,0,0,0,0,0,0,0,0,0,0,0,0,0,0,0,0,0,0,0,0,0,0,0,0,0,0,0,0,0,0,0,0,0,0,0,0,0,0,-8.0434,-8.0436,0,-8.0592,-8.0594,-8.0596,-8.0523,-8.0519,-8.0515,-8.0511,-8.0666,-8.0674,-8.0682,0,0,0,0,0,0,0,0,0,0,0,0,0,-8.0063,-8.007,-8.0434,-8.0436,-8.0438,-8.0592,-8.0594,-8.0596,-8.0524,-8.0519,-8.0514,-8.051,-8.0664,-8.0673,-8.0682,0,0,0,0,0,0,0,0,0,0,0,0,0,-8.0223,-8.0072,-8.0434,-8.0421,-8.0421,-8.0592,-8.0594,-8.0597,-8.0525,-8.0519,-8.0513,-8.0507,-8.0661,-8.0672,-8.0684,-8.0874,0,0,-8.072,-8.0725,0,0,0,0,0,0,0,0,-8.0214,-8.0236,-8.0421,-8.0422,-8.0423,-8.0532,-8.052,-8.069,-8.0526,-8.0485,-8.0511,-8.0505,-8.0626,-8.064,-8.0683,-8.0882,-8.0888,-8.0721,-8.0728,-8.0733,-8.0736,0,0,0,0,0,0,0,-8.0203,-8.0229,-8.0497,-8.0423,-8.0425,-8.0405,-8.0421,-8.0552,-8.0587,-8.0488,-8.0483,-8.0504,-8.0625,-8.0672,-8.0686,-8.0891,-8.072,-8.0731,-8.0738,-8.0742,-8.1252,-8.1259,0,0,0,0,0,0,-8.0193,-8.022,-8.0492,-8.0501,-8.0302,-8.0416,-8.0434,-8.0503,-8.0585,-8.0592,-8.0508,-8.05,-8.0654,-8.0672,-8.0691,-8.0919,-8.0733,-8.0744,-8.075,-8.1246,-8.1254,-8.1261,0,0,0,0,0,0,-8.0185,-8.0218,-8.0485,-8.036,-8.0392,-8.0429,-8.0506,-8.0509,-8.0555,-8.06,-8.0605,-8.055,-8.0651,-8.0674,-8.083,-8.0924,-8.0749,-8.0759,-8.1238,-8.1248,-8.1257,-8.1378,0,0,0,0,0,0,-8.0175,-8.0216,-8.029,-8.0362,-8.0399,-8.0624,-8.0512,-8.0516,-8.0576,-8.0566,-8.064,-8.0647,-8.0648,-8.0813,-8.0841,-8.0937,-8.0769,-8.123,-8.1243,-8.1254,-8.1365,-8.139,-8.1412,0,0,0,0,0,-8.0162,-8.0316,-8.0294,-8.0327,-8.0494,-8.0629,-8.065,-8.065,-8.0584,-8.0658,-8.0687,-8.0645,-8.0909,-8.0829,-8.0861,-8.0961,-8.1224,-8.1239,-8.1253,-8.1355,-8.1385,-8.1411,0,0,0,0,0,0,-8.0252,-8.0326,-8.0302,-8.0485,-8.0552,-8.0617,-8.0711,-8.0682,-8.0768,-8.0754,-8.0748,-8.0765,-8.0926,-8.0959,-8.0869,-8.1149,-8.1056,-8.1078,-8.1122,-8.1152,-8.1174,-8.1163,-8.0778,0,0,0,0,0,-8.0294,-8.04,-8.0458,-8.0613,-8.0648,-8.0674,-8.0733,-8.0727,-8.0795,-8.0823,-8.0863,-8.0928,-8.1026,-8.109,-8.1183,-8.1369,-8.1384,-8.1454,-8.1477,-8.1496,-8.1514,-8.1615,-8.1646,-8.1309,-8.1309,-8.1309,0,0,-8.038,-8.0433,-8.0501,-8.0633,-8.0684,-8.0792,-8.0698,-8.0817,-8.0896,-8.084,-8.0989,-8.1021,-8.1094,-8.1266,-8.1343,-8.1298,-8.1611,-8.1514,-8.1529,-8.1538,-8.1633,-8.1665,-8.1693,-8.1319,-8.1317,-8.1316,0,0,-8.0593,-8.0645,-8.078,-8.0834,-8.0913,-8.0929,-8.0961,-8.1031,-8.1051,-8.1201,-8.1161,-8.1254,-8.1423,-8.1476,-8.1525,-8.1758,-8.1722,-8.1788,-8.1909,-8.2007,-8.2033,-8.2057,-8.2139,-8.2169,-8.1806,-8.1807,-8.1807,0,-8.069,-8.0854,-8.0852,-8.0975,-8.1033,-8.0989,-8.1125,-8.1176,-8.1281,-8.1321,-8.1269,-8.148,-8.1525,-8.1709,-8.1766,-8.1807,-8.1843,-8.178,-8.203,-8.2053,-8.2075,-8.2154,-8.2185,-8.1814,-8.1813,-8.1813,-8.1812,0,-8.0968,-8.1083,-8.1182,-8.1287,-8.1356,-8.1485,-8.1501,-8.1571,-8.1558,-8.1579,-8.1732,-8.1785,-8.1888,-8.193,-8.1919,-8.2112,-8.2081,-8.203,-8.1936,-8.2115,-8.2189,-8.2219,-8.1825,-8.1822,-8.182,-8.1818,0,0,-8.1243,-8.1346,-8.1383,-8.1429,-8.1513,-8.16,-8.1726,-8.1828,-8.1888,-8.1961,-8.2065,-8.2208,-8.2161,-8.2217,-8.2211,-8.2297,-8.2477,-8.2234,-8.2236,-8.2277,-8.2692,-8.2731,-8.2766,-8.2453,-8.2459,-8.2463,-8.2686,0,-8.1462,-8.1685,-8.1687,-8.1891,-8.1995,-8.1954,-8.2063,-8.2125,-8.2148,-8.2238,-8.2261,-8.2363,-8.2293,-8.2327,-8.241,-8.2438,-8.256,-8.2421,-8.2548,-8.2553,-8.2532,-8.2805,-8.2846,-8.3054,-8.2715,-8.272,-8.2723,0,-8.1748,-8.1833,-8.2048,-8.2117,-8.2161,-8.2259,-8.2353,-8.244,-8.2508,-8.2518,-8.2581,-8.2562,-8.2687,-8.2589,-8.276,-8.2666,-8.2717,-8.2739,-8.2746,-8.2758,-8.2649,-8.2824,-8.312,-8.3151,-8.2769,-8.2765,-8.2762,0,-8.1927,-8.2095,-8.2245,-8.2286,-8.237,-8.244,-8.2478,-8.2541,-8.2602,-8.2683,-8.2722,-8.2815,-8.2866,-8.2938,-8.2943,-8.2871,-8.3115,-8.3018,-8.3126,-8.3126,-8.3179,-8.3176,-8.3488,-8.3212,-8.3212,-8.3211,-8.3211,0,-8.2172,-8.2305,-8.2327,-8.2419,-8.2567,-8.2566,-8.2711,-8.2742,-8.2799,-8.2895,-8.2863,-8.2954,-8.2955,-8.3046,-8.3051,-8.3192,-8.3215,-8.3225,-8.3224,-8.3228,-8.3227,-8.3262,-8.3248,-8.322,-8.3218,-8.3216,-8.3215,0,-8.2397,-8.2417,-8.2578,-8.2645,-8.2665,-8.277,-8.2826,-8.2913,-8.2932,-8.3054,-8.3082,-8.3112,-8.3218,-8.323,-8.3353,-8.3356,-8.3525,-8.3509,-8.3503,-8.3501,-8.3608,-8.3598,-8.3954,-8.4,-8.3694,-8.3697,-8.3699,0,-8.2552,-8.2654,-8.2732,-8.2795,-8.2837,-8.2939,-8.3002,-8.3005,-8.3071,-8.3156,-8.3233,-8.3336,-8.3419,-8.359,-8.3621,-8.3714,-8.37,-8.3818,-8.3714,-8.3714,-8.3702,-8.3696,-8.3705,-8.3839,-8.3842,-8.3845,-8.3847,0,-8.2825,-8.283,-8.2923,-8.302,-8.3096,-8.3172,-8.3242,-8.3295,-8.3306,-8.3382,-8.3491,-8.3556,-8.3682,-8.3785,-8.3877,-8.3912,-8.3882,-8.388,-8.3909,-8.3914,-8.3907,-8.3912,-8.3559,-8.3871,-8.3869,-8.3867,-8.3866,-8.3865,-8.302,-8.3108,-8.3177,-8.3281,-8.3335,-8.3402,-8.3488,-8.3518,-8.361,-8.3715,-8.371,-8.383,-8.3894,-8.4015,-8.4058,-8.415,-8.411,-8.4154,-8.4165,-8.4175,-8.4186,-8.3892,-8.4166,-8.4166,-8.4165,-8.4165,-8.4164,0,-8.3291,-8.3333,-8.343,-8.3531,-8.3612,-8.3578,-8.3655,-8.3725,-8.3832,-8.3895,-8.3978,-8.4103,-8.4202,-8.4241,-8.4337,-8.4403,-8.4392,-8.4429,-8.4424,-8.4432,-8.4216,-8.4181,-8.4437,-8.4437,-8.4437,-8.4436,-8.4436,-8.4436,-8.3442,-8.359,-8.3603,-8.3776,-8.3817,-8.3937,-8.3983,-8.4044,-8.4095,-8.4237,-8.432,-8.4345,-8.4398,-8.4498,-8.4587,-8.4595,-8.4632,-8.4675,-8.4678,-8.4475,-8.4448,-8.4421,-8.4388,-8.4683,-8.4684,-8.4886,-8.4888,-8.4889]}]]